Total_Precipitation_Accumulation
0.75 0.72 0.69 0.65 0.60 0.55 0.52 0.50 0.47 0.47 0.48 0.50 0.56 0.60 0.65 0.73 0.88 1.08 1.18 1.15 1.06 1.02 1.01 1.06 1.16 1.21 1.37 1.28 1.12 0.99 0.89 0.82 0.73 0.62 0.46 0.31 0.30 0.29 0.29 0.20 0.13 0.10 0.09
0.85 0.83 0.73 0.63 0.57 0.56 0.54 0.47 0.45 0.40 0.39 0.44 0.48 0.52 0.56 0.56 0.66 0.81 0.96 1.02 1.00 0.91 0.87 0.91 1.05 1.19 1.38 1.45 1.40 1.24 1.11 0.99 0.90 0.84 0.67 0.50 0.40 0.35 0.37 0.35 0.27 0.21 0.20
0.90 0.81 0.72 0.64 0.55 0.51 0.45 0.41 0.45 0.43 0.44 0.50 0.54 0.59 0.59 0.59 0.58 0.60 0.65 0.73 0.78 0.75 0.72 0.72 0.75 0.86 1.09 1.27 1.34 1.34 1.33 1.23 1.12 0.99 0.80 0.66 0.54 0.40 0.37 0.38 0.32 0.31 0.26
1.06 0.96 0.85 0.73 0.61 0.55 0.48 0.43 0.40 0.41 0.43 0.46 0.47 0.52 0.61 0.61 0.58 0.58 0.56 0.53 0.51 0.52 0.55 0.61 0.64 0.67 0.80 0.92 1.01 1.17 1.37 1.35 1.26 1.16 0.94 0.72 0.59 0.46 0.42 0.43 0.41 0.41 0.37
1.08 1.07 0.93 0.74 0.61 0.54 0.49 0.42 0.40 0.39 0.39 0.41 0.44 0.46 0.52 0.57 0.62 0.64 0.51 0.43 0.40 0.37 0.35 0.39 0.45 0.54 0.61 0.65 0.70 0.93 1.18 1.29 1.25 1.18 1.08 0.88 0.63 0.51 0.41 0.39 0.44 0.50 0.46
0.99 0.97 0.75 0.58 0.46 0.41 0.41 0.39 0.35 0.33 0.36 0.40 0.40 0.41 0.50 0.51 0.60 0.57 0.42 0.37 0.37 0.38 0.37 0.32 0.33 0.36 0.38 0.41 0.46 0.56 0.75 0.93 1.11 1.21 1.17 1.00 0.79 0.62 0.54 0.48 0.46 0.49 0.48
0.64 0.60 0.51 0.40 0.38 0.41 0.42 0.36 0.34 0.33 0.34 0.36 0.37 0.38 0.41 0.51 0.49 0.34 0.33 0.32 0.37 0.39 0.38 0.39 0.36 0.31 0.32 0.32 0.38 0.41 0.41 0.47 0.64 0.87 1.00 1.01 1.01 0.81 0.66 0.56 0.50 0.53 0.51
0.40 0.40 0.34 0.30 0.31 0.34 0.35 0.34 0.39 0.44 0.41 0.41 0.43 0.43 0.41 0.45 0.40 0.28 0.29 0.30 0.37 0.40 0.40 0.42 0.48 0.44 0.41 0.45 0.42 0.44 0.39 0.36 0.48 0.48 0.59 0.82 0.88 0.85 0.74 0.71 0.75 0.66 0.54
0.12 0.13 0.12 0.12 0.13 0.14 0.16 0.22 0.33 0.40 0.41 0.44 0.46 0.46 0.41 0.37 0.34 0.25 0.25 0.32 0.39 0.43 0.41 0.40 0.45 0.46 0.55 0.56 0.52 0.62 0.60 0.49 0.55 0.58 0.59 0.59 0.59 0.58 0.61 0.62 0.61 0.62 0.57
0.01 0.01 0.01 0.02 0.02 0.03 0.06 0.08 0.15 0.19 0.24 0.32 0.33 0.36 0.39 0.37 0.42 0.29 0.28 0.32 0.38 0.44 0.45 0.45 0.57 0.54 0.56 0.53 0.45 0.63 0.65 0.55 0.48 0.49 0.46 0.41 0.35 0.35 0.39 0.46 0.60 0.63 0.56
0.00 0.00 0.00 0.00 0.00 0.01 0.02 0.03 0.06 0.08 0.12 0.16 0.21 0.27 0.33 0.38 0.45 0.40 0.42 0.42 0.43 0.52 0.52 0.48 0.46 0.53 0.38 0.37 0.37 0.42 0.57 0.51 0.44 0.48 0.45 0.40 0.35 0.32 0.31 0.33 0.44 0.54 0.56
0.00 0.00 0.00 0.00 0.00 0.01 0.01 0.02 0.02 0.03 0.06 0.09 0.11 0.15 0.21 0.26 0.32 0.36 0.36 0.38 0.40 0.49 0.52 0.44 0.44 0.49 0.33 0.28 0.29 0.36 0.42 0.46 0.43 0.47 0.43 0.39 0.34 0.28 0.25 0.26 0.26 0.28 0.31
0.00 0.00 0.00 0.00 0.01 0.01 0.01 0.01 0.02 0.03 0.05 0.06 0.09 0.15 0.21 0.27 0.28 0.23 0.20 0.21 0.25 0.37 0.40 0.42 0.44 0.40 0.32 0.26 0.26 0.31 0.34 0.39 0.49 0.48 0.39 0.33 0.28 0.25 0.22 0.20 0.22 0.23 0.25
0.00 0.00 0.00 0.01 0.01 0.01 0.02 0.03 0.03 0.04 0.05 0.09 0.13 0.18 0.22 0.25 0.26 0.23 0.25 0.26 0.24 0.28 0.30 0.30 0.32 0.31 0.33 0.30 0.27 0.30 0.34 0.38 0.43 0.38 0.31 0.27 0.25 0.25 0.26 0.26 0.29 0.30 0.32
0.00 0.00 0.00 0.00 0.01 0.01 0.01 0.01 0.02 0.03 0.04 0.10 0.17 0.21 0.21 0.21 0.15 0.14 0.24 0.34 0.39 0.45 0.51 0.45 0.43 0.40 0.37 0.34 0.31 0.30 0.33 0.35 0.31 0.27 0.25 0.21 0.20 0.20 0.21 0.22 0.24 0.26 0.28
0.00 0.00 0.00 0.00 0.01 0.01 0.01 0.01 0.01 0.02 0.05 0.07 0.07 0.09 0.10 0.09 0.09 0.10 0.16 0.26 0.34 0.43 0.58 0.62 0.62 0.61 0.56 0.48 0.39 0.31 0.26 0.25 0.26 0.26 0.26 0.24 0.22 0.20 0.19 0.17 0.17 0.17 0.18
0.00 0.00 0.00 0.00 0.01 0.01 0.02 0.04 0.05 0.04 0.02 0.01 0.01 0.02 0.08 0.15 0.19 0.23 0.24 0.27 0.30 0.41 0.59 0.66 0.66 0.63 0.56 0.49 0.43 0.34 0.27 0.23 0.23 0.22 0.21 0.21 0.22 0.21 0.19 0.14 0.11 0.10 0.12
0.00 0.00 0.00 0.03 0.05 0.05 0.05 0.09 0.13 0.17 0.14 0.07 0.01 0.01 0.04 0.11 0.15 0.18 0.24 0.36 0.38 0.44 0.52 0.53 0.52 0.40 0.31 0.27 0.23 0.19 0.15 0.13 0.14 0.13 0.12 0.11 0.12 0.13 0.14 0.13 0.12 0.11 0.11
0.00 0.01 0.03 0.07 0.09 0.07 0.08 0.13 0.14 0.10 0.08 0.07 0.04 0.02 0.01 0.04 0.06 0.08 0.16 0.34 0.35 0.29 0.23 0.19 0.17 0.15 0.11 0.09 0.09 0.09 0.07 0.06 0.05 0.04 0.03 0.03 0.04 0.06 0.08 0.10 0.11 0.13 0.16
0.00 0.00 0.02 0.07 0.09 0.07 0.07 0.07 0.07 0.05 0.03 0.04 0.04 0.04 0.04 0.05 0.07 0.07 0.09 0.13 0.12 0.08 0.06 0.07 0.06 0.05 0.04 0.04 0.04 0.04 0.03 0.03 0.03 0.02 0.02 0.02 0.02 0.03 0.05 0.08 0.11 0.13 0.15
0.00 0.00 0.00 0.03 0.05 0.04 0.03 0.03 0.03 0.02 0.02 0.03 0.02 0.01 0.03 0.07 0.08 0.07 0.06 0.05 0.04 0.03 0.04 0.05 0.03 0.02 0.02 0.02 0.03 0.03 0.03 0.03 0.03 0.03 0.03 0.03 0.03 0.03 0.05 0.08 0.12 0.14 0.15
0.00 0.01 0.02 0.04 0.04 0.02 0.02 0.03 0.05 0.04 0.02 0.03 0.03 0.02 0.03 0.06 0.07 0.05 0.05 0.05 0.03 0.03 0.04 0.06 0.06 0.04 0.03 0.03 0.03 0.02 0.03 0.03 0.03 0.03 0.03 0.03 0.03 0.03 0.04 0.06 0.09 0.13 0.16
0.00 0.00 0.01 0.03 0.03 0.01 0.01 0.03 0.04 0.04 0.02 0.02 0.03 0.04 0.04 0.06 0.06 0.06 0.07 0.06 0.07 0.07 0.06 0.06 0.08 0.07 0.04 0.03 0.03 0.03 0.03 0.03 0.03 0.04 0.04 0.04 0.04 0.05 0.05 0.05 0.06 0.08 0.11
0.00 0.00 0.01 0.02 0.02 0.01 0.02 0.03 0.04 0.03 0.03 0.04 0.05 0.05 0.05 0.05 0.04 0.04 0.04 0.05 0.07 0.08 0.06 0.04 0.04 0.03 0.02 0.03 0.03 0.03 0.05 0.05 0.03 0.03 0.04 0.05 0.06 0.07 0.09 0.12 0.15 0.16 0.17
0.00 0.00 0.01 0.02 0.02 0.01 0.01 0.02 0.03 0.03 0.03 0.04 0.04 0.03 0.03 0.04 0.03 0.02 0.04 0.04 0.05 0.06 0.04 0.04 0.04 0.02 0.01 0.01 0.02 0.03 0.06 0.07 0.07 0.06 0.05 0.05 0.07 0.10 0.14 0.21 0.26 0.28 0.29
0.00 0.00 0.00 0.01 0.01 0.01 0.01 0.02 0.03 0.02 0.02 0.02 0.02 0.02 0.03 0.03 0.02 0.01 0.02 0.02 0.03 0.04 0.03 0.03 0.04 0.02 0.01 0.01 0.02 0.04 0.07 0.07 0.06 0.05 0.02 0.02 0.04 0.07 0.08 0.11 0.15 0.19 0.23